Precipitable_Water
0.60 0.62 0.61 0.60 0.57 0.52 0.51 0.70 0.87 1.00 1.08 1.10 1.04 1.05 0.98 1.07 1.10 1.15 1.21 1.23 1.29 1.35 1.31 1.20 1.10 1.09 1.10 1.22 1.30 1.31 1.26 1.31 1.43 1.37 1.35 1.37 1.30 1.26 1.19 0.97 0.91 0.89 0.86
0.55 0.61 0.64 0.65 0.64 0.61 0.59 0.66 0.79 0.94 1.03 1.08 1.08 1.09 1.02 1.08 1.15 1.18 1.20 1.21 1.26 1.33 1.34 1.22 1.12 1.06 1.06 1.14 1.26 1.25 1.22 1.28 1.38 1.26 1.26 1.13 1.19 1.24 1.23 1.06 0.90 0.91 0.89
0.47 0.52 0.61 0.66 0.67 0.65 0.65 0.69 0.79 0.93 1.03 1.13 1.17 1.16 1.15 1.16 1.14 1.13 1.14 1.19 1.23 1.29 1.33 1.26 1.17 1.08 1.07 1.07 1.20 1.24 1.19 1.19 1.33 1.37 1.24 1.09 1.01 1.12 1.21 1.19 0.99 0.93 0.89
0.44 0.47 0.52 0.62 0.65 0.66 0.71 0.74 0.80 0.93 1.02 1.11 1.11 1.03 0.93 0.90 1.04 1.09 1.15 1.16 1.22 1.28 1.32 1.28 1.21 1.11 1.09 1.08 1.14 1.26 1.21 1.25 1.21 1.36 1.39 1.30 1.21 1.02 0.99 1.14 1.15 0.99 0.93
0.40 0.41 0.45 0.55 0.62 0.66 0.72 0.75 0.78 0.89 1.00 1.09 1.07 1.03 0.96 1.06 1.12 1.11 1.13 1.11 1.16 1.25 1.29 1.28 1.22 1.10 1.10 1.12 1.13 1.19 1.20 1.27 1.26 1.28 1.29 1.28 1.22 1.15 1.04 0.94 0.97 0.93 0.95
0.30 0.34 0.47 0.49 0.59 0.61 0.69 0.76 0.77 0.81 0.95 1.02 1.05 1.05 1.00 1.06 1.05 1.06 1.06 1.07 1.13 1.20 1.23 1.26 1.23 1.12 1.11 1.11 1.15 1.19 1.23 1.23 1.27 1.34 1.33 1.28 1.17 1.09 1.06 0.99 0.95 0.81 0.86
0.40 0.50 0.54 0.64 0.74 0.77 0.80 0.83 0.86 0.89 1.00 1.02 1.02 1.09 1.09 1.13 1.09 1.05 1.05 1.09 1.11 1.17 1.16 1.21 1.14 1.10 1.13 1.12 1.15 1.16 1.21 1.25 1.26 1.26 1.32 1.35 1.30 1.19 1.12 1.02 0.94 0.84 0.87
0.65 0.69 0.72 0.77 0.84 0.91 0.94 0.96 0.97 0.99 1.09 1.12 1.07 1.15 1.20 1.19 1.15 1.14 1.14 1.12 1.15 1.17 1.19 1.20 1.15 1.12 1.13 1.14 1.16 1.16 1.18 1.22 1.25 1.28 1.29 1.33 1.34 1.29 1.16 1.05 0.97 0.84 0.84
0.76 0.78 0.84 0.87 0.86 0.87 0.93 0.98 0.97 1.00 1.11 1.13 1.14 1.17 1.21 1.20 1.20 1.21 1.22 1.20 1.22 1.21 1.19 1.20 1.11 1.14 1.11 1.11 1.13 1.11 1.10 1.15 1.25 1.26 1.38 1.34 1.34 1.30 1.23 1.17 1.10 0.94 0.80
0.81 0.81 0.86 0.87 0.91 0.93 0.88 0.86 0.85 0.88 1.00 1.13 1.17 1.17 1.22 1.20 1.24 1.26 1.20 1.21 1.23 1.22 1.20 1.16 1.14 1.10 1.10 1.09 1.09 1.09 1.14 1.22 1.28 1.31 1.41 1.39 1.36 1.28 1.28 1.20 1.16 1.10 1.00
0.76 0.81 0.79 0.75 0.75 0.78 0.78 0.80 0.82 0.85 0.92 1.06 1.10 1.14 1.18 1.20 1.24 1.22 1.24 1.26 1.22 1.22 1.22 1.10 1.11 1.04 1.02 1.05 1.07 1.10 1.17 1.23 1.28 1.38 1.39 1.38 1.38 1.28 1.29 1.28 1.19 1.14 1.10
0.80 0.82 0.85 0.77 0.74 0.75 0.74 0.75 0.78 0.81 0.90 1.01 1.03 1.06 1.11 1.21 1.25 1.22 1.22 1.24 1.19 1.23 1.17 1.09 1.03 0.98 0.98 1.03 1.05 1.11 1.20 1.25 1.25 1.34 1.36 1.34 1.39 1.31 1.29 1.28 1.14 1.14 1.16
0.80 0.80 0.80 0.73 0.71 0.72 0.74 0.75 0.78 0.81 0.89 0.97 1.02 1.06 1.16 1.21 1.22 1.23 1.21 1.25 1.22 1.19 1.07 1.05 0.99 0.96 0.98 1.00 1.04 1.10 1.19 1.26 1.34 1.38 1.37 1.36 1.37 1.29 1.31 1.27 1.15 1.16 1.18
0.77 0.83 0.76 0.68 0.68 0.68 0.69 0.75 0.80 0.85 0.88 0.93 1.00 1.07 1.11 1.18 1.18 1.21 1.24 1.23 1.23 1.13 1.06 1.04 1.01 0.99 0.99 1.00 1.06 1.15 1.24 1.28 1.35 1.35 1.36 1.37 1.33 1.31 1.23 1.20 1.22 1.22 1.14
0.76 0.76 0.75 0.69 0.65 0.64 0.66 0.70 0.79 0.85 0.88 0.91 0.95 1.01 1.10 1.17 1.19 1.21 1.22 1.21 1.17 1.10 1.06 1.03 1.04 1.03 1.01 1.03 1.07 1.15 1.20 1.26 1.29 1.32 1.36 1.38 1.38 1.36 1.30 1.24 1.22 1.17 1.06
0.74 0.65 0.64 0.64 0.62 0.62 0.64 0.65 0.67 0.76 0.86 0.87 0.90 0.98 1.06 1.10 1.14 1.19 1.19 1.19 1.15 1.09 1.05 1.04 1.08 1.00 1.01 1.04 1.07 1.12 1.19 1.26 1.26 1.24 1.28 1.32 1.32 1.33 1.33 1.27 1.25 1.25 1.10
0.69 0.68 0.61 0.59 0.57 0.58 0.59 0.59 0.62 0.65 0.70 0.79 0.89 0.92 1.00 1.05 1.06 1.13 1.17 1.16 1.14 1.09 1.01 1.05 1.07 0.99 1.01 1.02 1.06 1.15 1.21 1.22 1.25 1.25 1.25 1.25 1.30 1.30 1.26 1.25 1.24 1.20 1.17
0.68 0.65 0.62 0.58 0.57 0.58 0.58 0.57 0.58 0.60 0.62 0.67 0.78 0.89 0.94 0.99 1.04 1.08 1.07 1.14 1.16 1.08 1.06 1.06 1.08 1.01 1.00 1.03 1.06 1.14 1.18 1.20 1.23 1.24 1.22 1.21 1.23 1.25 1.23 1.19 1.14 1.11 1.09
0.61 0.60 0.60 0.58 0.57 0.56 0.56 0.53 0.51 0.55 0.55 0.56 0.63 0.70 0.83 0.91 0.97 0.99 1.01 1.06 1.09 1.11 1.14 1.15 1.09 1.01 1.00 1.02 1.05 1.09 1.12 1.12 1.11 1.14 1.16 1.15 1.08 1.10 1.13 1.11 1.06 1.03 1.02
0.59 0.57 0.56 0.55 0.55 0.54 0.53 0.50 0.49 0.49 0.50 0.53 0.55 0.62 0.69 0.82 0.90 0.96 0.98 0.97 1.06 1.09 1.19 1.16 1.09 1.06 1.01 1.02 1.03 1.03 1.00 0.97 0.97 0.98 0.99 1.04 1.08 1.07 1.08 1.09 1.04 0.97 0.92
0.53 0.55 0.52 0.48 0.47 0.48 0.46 0.45 0.46 0.44 0.48 0.52 0.54 0.56 0.61 0.70 0.83 0.93 1.01 0.98 1.01 1.03 1.08 1.09 1.04 1.03 1.01 1.00 1.01 1.00 0.97 0.94 0.90 0.90 0.90 0.91 0.94 0.97 0.97 0.99 0.96 0.95 0.94
0.49 0.48 0.45 0.45 0.44 0.44 0.43 0.40 0.41 0.45 0.46 0.49 0.50 0.53 0.56 0.61 0.68 0.78 0.85 0.89 0.94 0.96 0.96 0.99 0.96 0.98 0.98 0.99 1.00 1.01 0.98 0.96 0.92 0.89 0.91 0.94 0.94 0.92 0.93 0.92 0.90 0.89 0.89
0.46 0.44 0.41 0.40 0.40 0.40 0.40 0.37 0.42 0.45 0.45 0.45 0.46 0.48 0.53 0.56 0.60 0.66 0.74 0.80 0.84 0.92 0.91 0.90 0.92 0.94 0.94 0.93 0.94 0.96 0.97 0.97 0.95 0.94 0.90 0.90 0.92 0.94 0.94 0.89 0.89 0.88 0.85
0.41 0.42 0.40 0.37 0.36 0.37 0.37 0.38 0.42 0.45 0.45 0.44 0.45 0.46 0.49 0.51 0.55 0.59 0.71 0.78 0.83 0.86 0.88 0.85 0.85 0.89 0.91 0.92 0.93 0.94 0.94 0.95 0.92 0.92 0.91 0.90 0.89 0.86 0.84 0.85 0.83 0.81 0.79
0.40 0.40 0.39 0.37 0.36 0.38 0.38 0.40 0.43 0.46 0.44 0.44 0.44 0.45 0.48 0.50 0.49 0.53 0.58 0.69 0.77 0.82 0.83 0.82 0.83 0.82 0.82 0.86 0.85 0.87 0.88 0.87 0.86 0.88 0.83 0.81 0.80 0.79 0.77 0.75 0.75 0.75 0.73
0.40 0.38 0.39 0.39 0.38 0.38 0.38 0.41 0.43 0.44 0.43 0.42 0.42 0.44 0.44 0.46 0.49 0.49 0.51 0.59 0.67 0.77 0.80 0.80 0.79 0.79 0.81 0.79 0.82 0.81 0.83 0.82 0.78 0.79 0.74 0.72 0.72 0.70 0.69 0.67 0.65 0.65 0.64
Wind_Speed
32 38 37 39 38 37 36 37 36 33 31 29 26 25 26 26 25 24 23 21 19 17 16 15 15 15 16 18 21 20 22 21 22 22 24 23 23 23 22 21 20 20 21
32 31 28 33 34 35 35 34 34 33 31 30 28 26 26 26 25 25 24 22 20 19 18 17 16 17 17 18 21 23 22 22 24 22 24 25 24 24 24 23 23 22 22
32 32 32 27 30 29 30 31 31 32 32 30 29 25 25 25 25 25 25 23 22 21 20 19 18 18 19 19 21 24 24 24 26 25 24 25 27 25 25 25 26 24 23
35 33 31 32 30 29 30 31 31 31 31 30 29 28 27 26 26 26 26 25 24 22 21 21 20 20 20 20 21 24 26 26 26 27 29 27 28 27 24 26 28 28 26
38 35 34 32 35 33 33 32 31 31 32 31 30 30 28 27 27 27 28 27 26 24 22 22 21 21 22 21 22 24 26 27 28 28 28 30 28 31 26 25 27 28 27
36 33 34 31 30 30 30 31 31 31 31 31 30 31 30 28 27 27 27 26 26 25 24 24 22 22 22 22 23 25 27 29 29 29 29 31 30 31 28 26 28 29 27
25 27 27 27 26 25 26 26 26 27 30 31 30 30 30 30 29 29 28 28 27 25 25 24 24 23 23 24 25 26 27 29 30 31 33 31 33 32 30 28 29 27 27
20 21 23 24 25 24 24 24 25 26 29 30 29 30 31 31 30 30 28 27 26 25 24 24 24 23 24 24 25 26 28 30 32 33 34 33 34 33 32 28 29 27 27
16 18 18 20 22 23 25 26 27 27 28 28 29 29 30 30 29 29 28 27 26 25 24 24 24 24 24 25 26 27 29 32 32 33 37 34 36 37 35 32 30 28 26
16 15 15 16 18 20 21 21 22 24 26 26 25 27 28 29 28 27 26 26 25 24 24 23 23 24 25 26 26 27 28 31 33 33 36 36 38 37 37 36 33 30 27
16 16 13 14 14 15 16 18 19 21 23 25 26 26 27 28 28 28 27 26 25 25 24 23 23 24 25 26 27 27 28 29 31 33 35 36 39 39 38 36 35 31 29
15 11 15 15 13 13 14 15 16 18 20 22 24 26 27 29 28 28 27 26 26 25 24 24 24 24 25 25 26 27 29 30 34 38 39 38 41 40 42 36 33 31 28
12 13 14 13 12 12 12 13 14 16 18 20 21 23 25 28 28 28 27 26 25 25 24 23 23 23 23 24 25 26 27 29 31 33 35 36 37 41 41 38 32 31 29
10 13 12 12 9 8 9 11 12 14 15 17 18 20 23 25 27 27 27 26 25 24 23 23 22 22 21 21 20 20 21 22 25 27 33 35 40 41 44 39 35 31 29
12 15 12 9 7 6 7 7 9 11 12 14 17 18 21 22 25 26 27 26 26 25 24 22 21 20 19 18 16 16 17 18 21 25 27 30 32 38 40 39 36 34 30
15 13 11 8 7 6 6 6 6 7 9 11 14 17 20 22 23 25 26 26 25 24 23 22 20 19 18 17 16 13 11 10 15 20 22 24 28 32 38 33 33 32 30
9 13 9 5 4 5 6 6 6 7 7 10 12 14 17 19 23 23 24 26 25 24 23 22 20 19 18 17 16 14 11 8 9 15 17 21 23 27 29 29 30 29 29
6 7 6 6 6 6 7 7 7 8 8 8 10 12 15 17 19 21 22 22 26 25 24 22 21 20 18 17 17 16 15 12 12 12 15 17 19 24 25 25 25 26 26
2 4 1 6 7 7 7 9 9 10 10 10 11 11 14 17 18 21 23 23 23 25 24 23 22 20 19 19 18 17 16 16 15 15 16 17 18 20 23 23 22 22 22
4 3 3 2 4 7 8 9 10 10 11 12 12 13 14 16 18 21 22 24 23 24 25 22 22 21 19 19 20 20 19 17 16 16 17 19 21 21 23 24 25 23 24
5 5 5 4 7 8 8 9 10 10 11 12 13 13 13 14 16 19 21 24 27 26 25 24 23 22 21 20 20 21 21 19 18 18 18 19 20 22 22 23 24 25 23
4 5 6 7 7 8 9 9 10 11 11 12 12 13 13 13 14 17 21 21 25 28 26 25 23 22 21 21 21 21 22 21 20 20 19 19 19 20 22 22 22 22 23
4 5 5 7 7 9 9 9 10 10 11 11 11 12 13 13 14 14 16 21 20 23 26 26 26 24 22 21 21 22 23 22 21 21 19 19 19 19 20 20 21 22 22
5 5 5 5 6 7 7 8 9 9 9 10 10 11 11 11 12 12 13 14 18 20 22 26 26 23 21 22 21 20 20 20 21 20 19 20 20 19 19 19 21 22 22
4 5 5 5 5 6 6 7 7 7 7 7 8 9 9 9 9 9 8 9 11 16 16 20 23 21 21 21 23 22 22 21 21 20 19 18 20 18 19 19 19 19 21
5 5 5 5 5 6 6 6 7 7 6 6 6 6 6 7 7 7 6 4 5 6 12 15 17 18 18 21 18 20 19 18 18 15 17 16 18 17 16 17 16 18 18
Wind_Direction
245 237 239 240 238 237 235 235 233 233 233 234 237 241 244 243 243 240 242 245 248 250 257 260 259 254 251 243 235 234 229 233 226 223 222 224 221 221 223 222 221 219 217
241 237 239 235 233 234 232 229 229 229 231 233 237 243 242 242 242 238 240 242 245 249 253 258 259 256 253 246 238 233 232 232 225 228 224 224 225 227 225 224 222 221 220
240 240 235 233 229 225 225 225 226 227 230 233 236 240 241 240 241 237 237 240 244 249 253 257 259 257 254 250 241 235 233 232 228 231 230 228 232 226 227 227 223 223 223
238 236 236 230 228 228 227 227 228 227 230 231 235 237 239 240 241 238 237 240 243 248 252 255 259 259 256 252 245 238 235 233 234 234 234 232 230 225 228 229 226 224 224
240 235 233 233 232 233 231 229 229 230 232 233 236 239 240 240 240 240 238 240 242 245 252 254 257 259 256 253 246 241 237 236 234 235 233 232 230 224 229 228 225 222 223
236 233 231 230 230 230 228 229 230 232 232 234 236 237 236 237 239 238 238 237 240 245 250 253 255 259 257 253 249 245 243 238 238 236 234 229 229 226 229 228 223 221 222
217 215 216 217 219 222 224 225 228 232 234 236 237 236 236 238 239 237 238 238 241 245 248 251 255 258 257 255 252 248 245 241 238 238 233 233 231 226 228 226 222 222 223
200 200 207 212 218 222 226 230 232 236 238 238 237 237 237 239 239 237 237 238 239 243 247 251 254 258 257 256 254 251 247 245 242 239 234 230 228 227 224 224 221 223 226
196 201 208 215 220 227 233 236 238 240 240 239 237 236 236 235 235 236 235 236 239 243 249 250 254 258 258 257 256 254 252 249 240 239 231 234 227 225 224 223 223 224 226
200 204 213 220 226 229 232 233 237 239 238 237 235 234 234 232 231 232 232 236 239 244 248 251 255 258 258 258 258 257 255 249 243 241 229 233 225 224 223 224 224 225 229
204 217 231 214 221 228 232 236 240 241 239 236 235 235 234 231 230 231 235 239 242 245 247 253 258 260 261 260 258 258 255 250 245 235 234 232 223 223 221 223 223 226 229
198 200 206 213 218 230 238 243 244 242 241 237 236 236 235 230 230 232 235 239 243 245 248 255 260 262 263 261 261 261 256 250 248 240 235 233 221 222 219 221 220 225 226
206 214 207 208 218 231 242 248 249 246 241 238 237 235 232 230 230 232 237 240 242 244 251 254 258 262 263 264 264 263 258 255 248 235 227 225 219 218 214 215 221 227 226
208 192 197 205 220 236 248 253 253 251 244 239 236 234 232 232 232 233 236 238 239 244 248 253 257 262 263 264 263 262 256 254 237 232 227 224 221 219 211 219 222 223 225
185 194 193 197 217 237 250 260 261 256 249 241 237 236 235 234 233 235 236 237 241 245 247 250 254 260 259 259 256 260 259 251 236 228 224 215 213 210 215 221 225 223 227
189 173 178 194 219 234 251 266 274 272 258 247 242 240 239 239 238 236 236 236 238 242 244 246 251 254 254 250 250 255 249 250 228 214 212 210 213 215 212 215 222 222 227
179 187 184 203 223 242 257 265 276 283 274 259 253 248 244 242 240 240 239 235 237 240 241 244 246 248 247 245 241 238 236 229 210 203 204 207 205 204 210 216 219 224 233
122 157 199 227 258 259 265 274 279 277 280 279 266 258 253 246 242 240 239 240 237 238 238 241 242 243 242 240 235 231 228 225 217 205 202 201 202 202 207 209 222 226 238
66 60 332 250 276 279 278 282 279 277 277 280 277 273 265 254 249 243 242 242 243 238 236 237 237 240 239 236 232 228 226 223 223 219 214 209 208 207 211 218 223 228 236
280 297 353 342 287 295 286 283 284 281 279 279 280 277 277 263 254 249 246 242 241 241 233 234 236 238 239 236 230 227 225 225 223 223 224 223 222 224 229 231 232 235 240
291 274 293 291 298 302 300 294 288 289 285 280 278 280 280 275 264 253 250 246 243 241 233 234 235 238 237 236 230 228 227 227 228 230 231 232 230 232 234 235 235 238 242
302 280 279 291 303 306 304 302 297 292 288 285 283 280 279 279 277 264 255 252 246 237 235 234 234 236 236 234 231 229 228 229 230 233 234 235 234 235 236 238 236 239 243
316 306 295 298 301 309 309 309 307 298 289 285 285 283 284 281 281 283 270 249 246 234 235 234 234 233 231 231 232 232 231 231 233 233 233 233 234 234 237 236 239 242 247
333 323 322 320 311 319 320 318 315 306 300 293 289 286 281 285 285 286 276 255 245 242 239 233 231 229 228 228 231 230 228 225 227 228 238 239 235 237 237 240 244 248 250
331 331 331 330 327 330 331 330 327 321 317 311 301 292 287 285 287 291 290 261 252 241 232 233 229 231 227 232 233 230 229 230 230 232 233 238 236 234 238 243 249 249 249
340 335 327 321 326 328 335 337 340 337 336 332 322 313 296 287 277 278 277 276 248 236 236 236 229 221 229 231 227 222 223 229 225 232 227 238 235 237 240 237 246 247 250